DW9104 Weather Reports


time (UTC)temp
F
wind
direction
speed
knots
gust
knots
rain 1hr
in
rain 24hr
in
rain mn
in
humidity
%
barometer
mb
20260507161904 60 133 0.0 5.2 0.00 0.00 0.00 51 1013.8
20260507161403 60 83 0.9 4.3 0.00 0.00 0.00 52 1013.8
20260507160404 61 99 0.9 4.3 0.00 0.00 0.00 51 1013.8
20260507155904 61 120 0.9 5.2 0.00 0.00 0.00 50 1013.8
20260507154904 61 135 0.0 1.7 0.00 0.00 0.00 50 1013.8
20260507154404 61 39 0.0 2.6 0.00 0.00 0.00 49 1013.8
20260507153404 61 88 0.0 2.6 0.00 0.00 0.00 49 1013.9
20260507152903 61 19 0.0 4.3 0.00 0.00 0.00 50 1013.9
20260507151903 61 115 1.7 6.1 0.00 0.00 0.00 48 1014.0
20260507150904 61 95 0.0 5.2 0.00 0.00 0.00 49 1014.0
20260507150404 61 116 0.9 2.6 0.00 0.00 0.00 49 1014.0
20260507145903 61 132 0.0 2.6 0.00 0.00 0.00 49 1014.0
20260507145404 61 139 0.9 2.6 0.00 0.00 0.00 48 1014.0
20260507144904 62 133 0.9 4.3 0.00 0.00 0.00 49 1014.1
20260507144403 62 127 0.0 1.7 0.00 0.00 0.00 49 1014.1
20260507143904 61 96 1.7 4.3 0.00 0.00 0.00 48 1014.1
20260507142904 60 99 0.0 2.6 0.00 0.00 0.00 49 1014.1
20260507142406 61 105 0.9 7.0 0.00 0.00 0.00 47 1014.2
20260507141905 61 106 0.9 2.6 0.00 0.00 0.00 48 1014.3
20260507141405 62 108 0.9 5.2 0.00 0.00 0.00 47 1014.3
20260507140906 62 97 0.0 1.7 0.00 0.00 0.00 51 1014.4
20260507140406 61 129 0.9 2.6 0.00 0.00 0.00 49 1014.5
20260507135906 61 114 0.0 2.6 0.00 0.00 0.00 50 1014.5
20260507134906 60 119 1.7 5.2 0.00 0.00 0.00 52 1014.6
20260507133905 61 106 1.7 4.3 0.00 0.00 0.00 49 1014.7
20260507132906 60 38 0.9 5.2 0.00 0.00 0.00 49 1014.5
20260507131906 61 139 0.9 5.2 0.00 0.00 0.00 51 1014.7
20260507131406 61 136 1.7 5.2 0.00 0.00 0.00 50 1014.7
20260507130905 61 112 0.0 2.6 0.00 0.00 0.00 48 1014.7
20260507130405 60 46 0.9 2.6 0.00 0.00 0.00 50 1014.9
20260507125906 60 113 0.9 6.1 0.00 0.00 0.00 51 1014.8
20260507125405 60 98 1.7 6.1 0.00 0.00 0.00 50 1014.8
20260507124905 60 105 0.0 1.7 0.00 0.00 0.00 53 1014.9
20260507124406 60 119 0.9 4.3 0.00 0.00 0.00 51 1015.0
20260507123905 60 326 1.7 6.1 0.00 0.00 0.00 51 1015.0
20260507123405 60 78 0.0 4.3 0.00 0.00 0.00 51 1015.0
20260507122406 59 117 0.9 2.6 0.00 0.00 0.00 54 1014.9
20260507121905 59 328 0.9 2.6 0.00 0.00 0.00 54 1015.0
20260507120905 59 115 0.9 2.6 0.00 0.00 0.00 57 1015.1
20260507120405 58 110 0.9 4.3 0.00 0.00 0.00 56 1015.2
20260507115905 58 326 0.9 2.6 0.00 0.00 0.00 57 1015.3
20260507115406 58 73 0.9 2.6 0.00 0.00 0.00 60 1015.3
20260507114905 58 94 0.0 2.6 0.00 0.00 0.00 64 1015.3
20260507113905 57 126 0.0 2.6 0.00 0.00 0.00 64 1015.4
20260507113405 57 11 0.9 5.2 0.00 0.00 0.00 62 1015.5
20260507112906 57 112 0.9 2.6 0.00 0.00 0.00 64 1015.5
20260507112405 56 19 0.9 5.2 0.00 0.00 0.00 66 1015.5
20260507111905 56 105 0.9 2.6 0.00 0.00 0.00 66 1015.6
20260507111406 55 351 0.9 2.6 0.00 0.00 0.00 68 1015.6
20260507110405 55 132 0.9 2.6 0.00 0.00 0.00 67 1015.7
20260507105405 55 130 0.0 2.6 0.00 0.00 0.00 67 1015.9
20260507104906 55 108 0.9 2.6 0.00 0.00 0.00 67 1015.9
20260507104405 54 127 0.0 1.7 0.00 0.00 0.00 68 1015.9
20260507103405 54 131 0.9 2.6 0.00 0.00 0.00 68 1015.9
20260507102907 54 116 0.9 2.6 0.00 0.00 0.00 69 1015.9
20260507102405 53 106 0.0 1.7 0.00 0.00 0.00 70 1016.0
20260507101906 53 122 0.0 1.7 0.00 0.00 0.00 71 1016.0
20260507100905 53 15 0.0 2.6 0.00 0.00 0.00 72 1016.0
20260507100405 53 101 0.9 2.6 0.00 0.00 0.00 73 1016.0
20260507095905 53 113 0.9 2.6 0.00 0.00 0.00 74 1015.9
20260507095405 53 124 0.0 4.3 0.00 0.00 0.00 74 1015.9
20260507094905 52 95 0.0 2.6 0.00 0.00 0.00 75 1015.9
20260507094405 52 356 0.0 2.6 0.00 0.00 0.00 74 1015.9
20260507093905 52 101 0.0 0.9 0.00 0.00 0.00 75 1015.9
20260507093405 52 126 0.0 1.7 0.00 0.00 0.00 76 1015.9
20260507092905 52 117 0.0 1.7 0.00 0.00 0.00 77 1015.9
20260507092405 52 323 0.0 1.7 0.00 0.00 0.00 76 1015.9
20260507091905 51 113 0.0 2.6 0.00 0.00 0.00 78 1016.0
20260507091405 51 179 0.9 2.6 0.00 0.00 0.00 78 1015.9
20260507090905 51 101 0.0 1.7 0.00 0.00 0.00 79 1016.0
20260507090405 50 117 0.0 0.9 0.00 0.00 0.00 81 1016.0
20260507085905 50 91 0.0 0.9 0.00 0.00 0.00 82 1015.9
20260507085406 49 108 0.0 1.7 0.00 0.00 0.00 82 1016.0
20260507084907 49 110 0.0 0.9 0.00 0.00 0.00 82 1016.0
20260507084405 49 105 0.0 0.9 0.00 0.00 0.00 83 1016.1
20260507083905 49 105 0.0 0.9 0.00 0.00 0.00 83 1016.1
20260507083405 49 117 0.0 1.7 0.00 0.00 0.00 84 1016.1
20260507082905 48 101 0.0 1.7 0.00 0.00 0.00 84 1016.1
20260507082405 48 101 0.0 0.9 0.00 0.00 0.00 85 1016.1
20260507081405 48 9 0.0 1.7 0.00 0.00 0.00 86 1016.0
20260507080905 47 354 0.0 1.7 0.00 0.00 0.00 86 1016.0
20260507080405 47 323 0.0 1.7 0.00 0.00 0.00 86 1016.0
20260507075905 47 38 0.0 0.9 0.00 0.00 0.00 87 1016.0
20260507075405 47 65 0.0 0.9 0.00 0.00 0.00 87 1016.0
20260507074905 47 109 0.0 1.7 0.00 0.00 0.00 87 1016.0
20260507074405 47 122 0.0 1.7 0.00 0.00 0.00 87 1016.0
20260507073905 47 94 0.0 0.9 0.00 0.00 0.00 88 1016.1
20260507073405 47 94 0.0 0.9 0.00 0.00 0.00 88 1016.0
20260507072905 46 21 0.0 0.9 0.00 0.00 0.00 88 1016.0
20260507071405 46 140 0.0 0.0 0.00 0.00 0.00 90 1016.0
20260507070905 46 140 0.0 0.9 0.00 0.00 0.00 90 1015.9
20260507070412 46 139 0.0 0.9 0.00 0.00 0.00 90 1015.9
20260507065905 45 344 0.0 0.9 0.00 0.00 0.00 91 1015.9
20260507065405 45 12 0.0 0.9 0.00 0.00 0.00 91 1015.9
20260507064905 45 37 0.0 0.9 0.00 0.00 0.00 91 1015.8
20260507063905 45 15 0.0 0.9 0.00 0.00 0.00 92 1015.8
20260507062905 44 140 0.0 0.9 0.00 0.00 0.00 92 1015.7
20260507062405 44 35 0.0 0.9 0.00 0.00 0.00 93 1015.7
20260507061905 44 24 0.0 0.9 0.00 0.00 0.00 93 1015.7
20260507061405 44 153 0.0 1.7 0.00 0.00 0.00 93 1015.7
20260507060904 44 121 0.0 0.9 0.00 0.00 0.00 93 1015.7
20260507060405 44 140 0.0 0.9 0.00 0.00 0.00 93 1015.7
20260507055405 44 97 0.0 0.9 0.00 0.00 0.00 94 1015.7
20260507054904 43 86 0.0 1.7 0.00 0.00 0.00 94 1015.6
20260507054405 43 121 0.0 0.9 0.00 0.00 0.00 94 1015.6
20260507053905 43 124 0.0 0.9 0.00 0.00 0.00 94 1015.6
20260507053405 43 124 0.0 0.9 0.00 0.00 0.00 94 1015.6
20260507052904 43 65 0.0 0.9 0.00 0.00 0.00 94 1015.6
20260507052405 43 147 0.0 1.7 0.00 0.00 0.00 94 1015.6
20260507051905 43 111 0.0 1.7 0.00 0.00 0.00 94 1015.6
20260507051404 43 345 0.0 0.9 0.00 0.00 0.00 94 1015.6
20260507050904 43 345 0.0 0.9 0.00 0.00 0.00 94 1015.6
20260507050405 43 150 0.0 0.9 0.00 0.00 0.00 94 1015.7
20260507045905 43 129 0.0 0.0 0.00 0.00 0.00 94 1015.7
20260507045405 43 130 0.0 0.9 0.00 0.00 0.00 94 1015.6
20260507044904 43 129 0.0 0.9 0.00 0.00 0.00 94 1015.6
20260507044405 42 74 0.0 0.9 0.00 0.00 0.00 94 1015.5
20260507043905 42 92 0.0 0.9 0.00 0.00 0.00 94 1015.5
20260507042905 42 98 0.0 0.9 0.00 0.00 0.00 94 1015.5
20260507042405 42 98 0.0 0.9 0.00 0.00 0.00 94 1015.5
20260507041905 42 97 0.0 0.9 0.00 0.00 0.00 94 1015.5
20260507041405 42 97 0.0 0.0 0.00 0.00 0.00 94 1015.5
20260507040905 42 117 0.0 0.9 0.00 0.00 0.00 94 1015.5
20260507040405 42 117 0.0 0.9 0.00 0.00 0.00 94 1015.5
20260507035904 42 117 0.0 0.9 0.00 0.00 0.00 94 1015.5
20260507035404 42 85 0.0 0.9 0.00 0.00 0.00 94 1015.5
20260507034904 42 85 0.0 0.9 0.00 0.00 0.00 94 1015.5
20260507034405 42 85 0.0 0.9 0.00 0.00 0.00 94 1015.4
20260507033905 42 85 0.0 0.9 0.00 0.00 0.00 94 1015.4
20260507033405 43 126 0.0 0.9 0.00 0.00 0.00 93 1015.5
20260507032905 43 328 0.0 0.9 0.00 0.00 0.00 93 1015.4
20260507032405 43 328 0.0 0.9 0.00 0.00 0.00 93 1015.4
20260507031905 43 94 0.0 0.0 0.00 0.00 0.00 93 1015.4
20260507031405 43 94 0.0 0.0 0.00 0.00 0.00 93 1015.5
20260507025905 43 125 0.0 0.9 0.00 0.00 0.00 93 1015.6
20260507025405 43 94 0.0 0.9 0.00 0.00 0.00 93 1015.6
20260507024905 43 94 0.0 0.9 0.00 0.00 0.00 93 1015.5
20260507024405 43 94 0.0 0.9 0.00 0.00 0.00 93 1015.5
20260507023904 43 94 0.0 0.9 0.00 0.00 0.00 93 1015.4
20260507023404 43 98 0.0 0.9 0.00 0.00 0.00 92 1015.4
20260507022905 43 98 0.0 0.9 0.00 0.00 0.00 92 1015.4
20260507021905 43 98 0.0 0.9 0.00 0.00 0.00 92 1015.5
20260507021405 43 98 0.0 0.9 0.00 0.00 0.00 92 1015.5
20260507015905 43 137 0.0 0.0 0.00 0.00 0.00 92 1015.4
20260507015404 43 9 0.0 0.9 0.00 0.00 0.00 92 1015.4
20260507014905 43 111 0.0 0.9 0.00 0.00 0.00 92 1015.4
20260507013904 43 111 0.0 0.9 0.00 0.00 0.00 92 1015.5
20260507013405 43 111 0.0 0.9 0.00 0.00 0.00 92 1015.5
20260507012405 43 131 0.0 0.9 0.00 0.00 0.00 91 1015.6
20260507011905 43 28 0.0 0.9 0.00 0.00 0.00 91 1015.6
20260507010405 43 288 0.0 0.0 0.00 0.00 0.00 91 1015.6
20260507005405 43 274 0.9 2.6 0.00 0.00 0.00 91 1015.6
20260507004904 44 134 0.0 0.0 0.00 0.00 0.00 91 1015.6
20260507004404 44 137 0.0 0.9 0.00 0.00 0.00 91 1015.6
20260507003905 44 241 0.0 0.9 0.00 0.00 0.00 91 1015.7
20260507003404 43 28 0.0 1.7 0.00 0.00 0.00 91 1015.6
20260507002905 44 70 0.0 2.6 0.00 0.00 0.00 91 1015.6
20260507002405 44 58 0.0 0.9 0.00 0.00 0.00 90 1015.6
20260507001905 44 43 0.0 0.9 0.00 0.00 0.00 90 1015.6
20260507001405 44 225 0.0 0.9 0.00 0.00 0.00 90 1015.7
20260507000405 44 68 0.0 0.9 0.00 0.00 0.00 90 1015.8
20260506235905 44 51 0.0 0.9 0.00 0.00 0.00 90 1015.8
20260506235405 44 58 0.0 0.9 0.00 0.00 0.00 90 1015.9
20260506234905 44 120 0.0 0.9 0.00 0.00 0.00 90 1015.9
20260506233905 44 88 0.0 0.9 0.00 0.00 0.00 90 1015.9
20260506233405 44 60 0.0 2.6 0.00 0.00 0.00 90 1015.9
20260506232905 44 128 0.0 1.7 0.00 0.00 0.00 90 1015.8
20260506231916 44 142 0.0 0.9 0.00 0.00 0.00 90 1015.8
20260506231415 44 357 0.0 0.9 0.00 0.00 0.00 90 1015.8
20260506230915 44 2 0.0 1.7 0.00 0.00 0.00 90 1015.7
20260506230416 44 81 0.0 0.9 0.00 0.00 0.00 90 1015.7
20260506225916 44 119 0.0 0.9 0.00 0.00 0.00 90 1015.8
20260506225416 44 119 0.0 0.9 0.00 0.00 0.00 90 1015.8
20260506224915 44 120 0.0 0.9 0.00 0.00 0.00 90 1015.7
20260506224415 44 113 0.0 0.9 0.00 0.00 0.00 90 1015.7
20260506223904 44 318 0.0 0.9 0.00 0.00 0.00 90 1015.7
20260506223405 44 318 0.0 0.9 0.00 0.00 0.00 90 1015.7
20260506222905 44 33 0.0 0.9 0.00 0.00 0.00 90 1015.8
20260506221905 44 174 0.0 1.7 0.00 0.00 0.00 89 1015.7
20260506221405 44 110 0.0 0.9 0.00 0.00 0.00 89 1015.6
20260506220404 44 84 0.0 0.9 0.00 0.00 0.00 89 1015.6
20260506215905 44 346 0.0 0.9 0.00 0.00 0.00 88 1015.5
20260506215404 44 41 0.0 1.7 0.00 0.00 0.00 88 1015.5
20260506214905 44 205 0.0 0.9 0.00 0.00 0.00 88 1015.4
20260506214405 45 128 0.0 0.9 0.00 0.00 0.00 87 1015.4
20260506213904 45 61 0.0 2.6 0.00 0.00 0.00 87 1015.3
20260506213405 45 125 0.0 2.6 0.00 0.00 0.00 87 1015.3
20260506212904 45 27 0.0 1.7 0.00 0.00 0.00 86 1015.3
20260506212404 45 105 0.0 0.9 0.00 0.00 0.00 86 1015.3
20260506211905 45 329 0.0 1.7 0.00 0.00 0.00 86 1015.3
20260506211404 45 280 0.0 1.7 0.00 0.00 0.00 85 1015.2
20260506210904 45 190 0.0 2.6 0.00 0.00 0.00 85 1015.2
20260506210404 45 357 0.0 0.0 0.00 0.00 0.00 85 1015.2
20260506205904 46 281 0.0 2.6 0.00 0.00 0.00 84 1015.1
20260506205404 46 78 0.0 0.9 0.00 0.00 0.00 83 1015.1
20260506204908 46 80 0.0 1.7 0.00 0.00 0.00 83 1015.0
20260506204404 46 9 0.0 2.6 0.00 0.00 0.00 82 1015.0
20260506203904 46 69 0.9 2.6 0.00 0.00 0.00 82 1014.9
20260506203404 46 8 0.0 1.7 0.00 0.00 0.00 82 1014.9
20260506202905 46 51 0.0 0.9 0.00 0.00 0.00 81 1014.9
20260506202404 47 283 0.0 0.9 0.00 0.00 0.00 80 1014.9
20260506201904 47 283 0.9 2.6 0.00 0.00 0.00 80 1014.8
20260506200904 47 12 0.0 2.6 0.00 0.00 0.00 79 1014.7
20260506200404 47 346 0.0 1.7 0.00 0.00 0.00 79 1014.6
20260506195904 47 104 0.0 0.0 0.00 0.00 0.00 78 1014.6
20260506195404 48 35 0.0 0.9 0.00 0.00 0.00 77 1014.5
20260506194904 48 126 0.0 0.9 0.00 0.00 0.00 77 1014.4
20260506194405 48 45 0.0 1.7 0.00 0.00 0.00 76 1014.4
20260506193904 48 106 0.0 2.6 0.00 0.00 0.00 75 1014.4
20260506193404 48 297 0.0 2.6 0.00 0.00 0.00 74 1014.3
20260506192905 49 58 0.0 1.7 0.00 0.00 0.00 74 1014.3
20260506192404 49 353 0.0 2.6 0.00 0.00 0.00 74 1014.2
20260506191904 49 83 0.0 1.7 0.00 0.00 0.00 73 1014.2
20260506191405 49 99 0.0 0.9 0.00 0.00 0.00 73 1014.2
20260506190904 50 99 0.0 0.9 0.00 0.00 0.00 73 1014.2
20260506190404 50 100 0.0 2.6 0.00 0.00 0.00 72 1014.1
20260506185904 50 309 0.0 2.6 0.00 0.00 0.00 72 1014.1
20260506185404 50 12 0.0 1.7 0.00 0.00 0.00 71 1014.1
20260506184904 50 56 0.0 2.6 0.00 0.00 0.00 70 1014.2
20260506184404 51 229 0.0 1.7 0.00 0.00 0.00 69 1014.1
20260506183905 51 99 0.9 2.6 0.00 0.00 0.00 69 1014.1
20260506183404 51 329 0.0 1.7 0.00 0.00 0.00 68 1014.0
20260506182905 52 181 0.0 1.7 0.00 0.00 0.00 68 1014.1
20260506182404 52 35 0.9 4.3 0.00 0.00 0.00 68 1014.1
20260506181904 52 330 0.9 2.6 0.00 0.00 0.00 67 1014.1
20260506180904 53 350 0.9 2.6 0.00 0.00 0.00 65 1014.1
20260506180404 53 116 0.0 0.9 0.00 0.00 0.00 63 1014.1
20260506175904 53 40 0.0 1.7 0.00 0.00 0.00 63 1014.0
20260506175404 53 119 0.9 2.6 0.00 0.00 0.00 62 1014.0
20260506174404 53 38 0.9 2.6 0.00 0.00 0.00 61 1013.9
20260506173904 54 222 0.9 2.6 0.00 0.00 0.00 59 1013.9
20260506173404 54 15 0.0 1.7 0.00 0.00 0.00 60 1013.8
20260506172904 54 28 0.0 2.6 0.00 0.00 0.00 59 1013.8
20260506172404 54 9 0.9 2.6 0.00 0.00 0.00 59 1013.7
20260506171904 54 44 0.0 2.6 0.00 0.00 0.00 61 1013.6
20260506171411 54 29 1.7 4.3 0.00 0.00 0.00 59 1013.6
20260506170904 54 93 0.9 2.6 0.00 0.00 0.00 58 1013.6
20260506170404 54 80 0.9 2.6 0.00 0.00 0.00 58 1013.6
20260506165404 54 47 0.9 5.2 0.00 0.00 0.00 58 1013.5
20260506164904 54 12 0.9 2.6 0.00 0.00 0.00 58 1013.5
20260506164404 55 42 0.0 2.6 0.00 0.00 0.00 58 1013.5
20260506163904 54 105 0.9 2.6 0.00 0.00 0.00 59 1013.5
20260506162904 54 4 0.9 2.6 0.00 0.00 0.00 57 1013.6
20260506162404 54 0 1.7 6.1 0.00 0.00 0.00 56 1013.5